Hourly Data Report for October 14, 2016

All times are specified in Local Standard Time (LST). Add 1 hour to adjust for Daylight Saving Time where and when it is observed.

QIKIQTARJUAQ A
NUNAVUT

67°32'48.000" N
64°01'54.000" W
5.50 m
2400577
YVM

Download Data

Hourly Data (October 2016)
Hourly Data Report for October 14, 2016
Temp Definition
°C
Dew Point Temp Definition
°C
Rel Hum Definition
%
Wind Dir Definition
10's deg

Wind Spd Definition
km/h
Visibility Definition
km
Stn Press Definition
kPa
Hmdx Definition


Wind Chill Definition


Weather Definition


TIME
00:00 Legend Double Dagger -4.6 -5.9 91 15 5 16.1 100.77   -7 LegendNANA
01:00 Legend Double Dagger -3.8 -5.6 88 19 5 16.1 100.78   -6 Snow
02:00 Legend Double Dagger -3.5 -5.1 89 16 4 9.7 100.79   -5 Snow
03:00 Legend Double Dagger -4.3 -5.7 90 LegendMM 4 16.1 100.80   -6 Snow
04:00 Legend Double Dagger -3.8 -5.4 89 20 11 16.1 100.80   -8 LegendNANA
05:00 Legend Double Dagger -3.2 -5.1 87 19 11 16.1 100.81   -7 LegendNANA
06:00 Legend Double Dagger -3.2 -5.1 87 19 11 16.1 100.81   -7 LegendNANA
07:00 Legend Double Dagger -4.7 -6.8 85 19 8 LegendMM 100.82   -8 LegendNANA
08:00 Legend Double Dagger -5.2 -7.0 87 16 9 16.1 100.84   -9 LegendNANA
09:00 Legend Double Dagger -2.9 -5.1 85 20 13 16.1 100.84   -8 LegendNANA
10:00 Legend Double Dagger -3.2 -5.8 82 20 11 16.1 100.82   -7 LegendNANA
11:00 Legend Double Dagger -3.9 -6.7 81 17 8 16.1 100.82   -7 LegendNANA
12:00 Legend Double Dagger -3.1 -6.3 78 20 9 16.1 100.83   -7 LegendNANA
13:00 Legend Double Dagger -3.5 -7.0 77 LegendMM 4 16.1 100.85   -5 LegendNANA
14:00 Legend Double Dagger -5.6 -7.9 84 22 8 16.1 100.82   -9 LegendNANA
15:00 Legend Double Dagger -5.4 -8.4 80 18 8 16.1 100.83   -9 LegendNANA
16:00 Legend Double Dagger -5.3 -8.4 79 14 9 16.1 100.81   -9 LegendNANA
17:00 Legend Double Dagger -5.4 -8.0 82 LegendMM 4 16.1 100.81   -7 LegendNANA
18:00 Legend Double Dagger -6.3 -9.7 77 19 9 16.1 100.76   -11 LegendNANA
19:00 Legend Double Dagger -6.4 -9.2 81 14 5 16.1 100.72   -9 LegendNANA
20:00 Legend Double Dagger -6.9 -9.4 83 13 8 16.1 100.67   -11 LegendNANA
21:00 Legend Double Dagger -6.1 -8.7 82 LegendMM 4 16.1 100.62   -8 LegendNANA
22:00 Legend Double Dagger -7.0 -9.2 85 16 5 16.1 100.56   -10 LegendNANA
23:00 Legend Double Dagger -6.2 -8.1 86 16 4 16.1 100.50   -8 LegendNANA

Notes on Data Quality.

Legend

  • E = Estimated
  • M = Missing
  • NA = Not Available
  • ‡ = Partner data that is not subject to review by the National Climate Archives
Date modified: